FENGYUN 1C DEB

Satellite information

Favourite Embed

Satellite Type and Status

DEBRISIN ORBIT

Key statistics

Satellite FENGYUN 1C DEB at a glance.

Uptime

9666

Days in orbit

Revolutions

≈ 14.3

Per day

Orbit

SSO

Sun Synchronous Orbit

Inclination

99.0

Latest

Satellite identification and parameters

Extended collection of information and parameters for FENGYUN 1C DEB.

Object identification

Identified? True

Debris? True

Object name: FENGYUN 1C DEB

International designator: 1999-025ZM

Object number (NORAD): 30300

Object ID (CCSDS): 30300

Country: PEOPLES REPUBLIC OF CHINA (PRC)

Current information (Y/N): Y

RCS size: SMALL

Orbital parameters

Period: 100.973 minutes

Inclination: 99.043 deg

SMA: 7182.835 km

Apoapsis: 860.015 km

Periapsis: 749.385 km

RAAN: 5.9327 deg

Eccentricy: 0.00770103

Argument of periapsis: 76.991 deg

Mean anomaly: 311.2004 deg

Mean motion: 14.26129346 rev/day

Mean motion (dot): 0.00006703 rev/day2

B* drag term: 0.0027324365 1/REarth

Two-line elements (TLE)

Creation date: Oct. 25, 2025, 10:45 a.m.

Reference frame: TEME

Reference center: EARTH

Epoch: Oct. 25, 2025, 4:02 a.m. UTC

TLE line 0: 0 FENGYUN 1C DEB

TLE line 1: 1 30300U 99025ZM 25298.16864625 .00006703 00000-0 27324-2 0 9991

TLE line 2: 2 30300 99.0430 5.9327 0077010 76.9910 311.2004 14.26129346962923

Live tracking on map

Real-time ground track for satellite FENGYUN 1C DEB.

In-orbit conjunctions

A list of the most updated potential collisions computed for object FENGYUN 1C DEB.

Target Orbit TCA Probability of collision Miss distance Type
SL-8 R/B LEO 2025-03-12 09:54:40 0.002270112 52.0 (m) ROCKET BODY
IRIDIUM 38 LEO 2025-02-08 19:07:38 0.0001109983 382.0 (m) PAYLOAD
SL-8 DEB LEO 2024-06-20 15:37:44 0.0001011143 277.0 (m) DEBRIS

Associated space launch

Chinese polar orbiting meteorological satellite

FENGYUN 1C DEB was lifted into orbit during the mission ‘Long March 4B | Feng Yun 1C’, on board a Long March 4B space rocket.

The launch took place on May 10, 1999, 1:33 a.m. from Launch Complex 7.

For more information about the launch, click the button.

Launch to space Long March 4B | Feng Yun 1C
Long March 4B | Feng Yun 1C

Agency: N/A

Status: Launch Successful

Launch date: May 10, 1999, 1:33 a.m. UTC

Rocket: Long March 4B

Launch pad: Launch Complex 7

Location: Taiyuan Satellite Launch Center, People's Republic of China

...

Latest news about this satellite

There are no fresh news available about this satellite. Check back as we update our databases every day.


Newsletter sign-up

Weekly statistics, charts and insights to help you stay on top of the space industry.